Powrót do katalogu

SHIYAN 32-01

AktywnyNaukaVLEO
NORAD 66376·PAYLOAD·🇨🇳 China

Wystrzelony Nov 8, 2025 z Yellow Sea Launch Area

Loading…

Następne Przeloty (najbliższe 24 godziny)

TLE

ŚwieżeSource: Space-Track

Epoka: Sep 14, 2026, 13:57 UTC

1 66376U 25255A   26257.58168312  .00023910  00000-0  34731-3 0  9999
2 66376  52.9912 294.0380 0007858 201.3942 158.6740 15.55669577 48114

Śledź SHIYAN 32-01 w czasie rzeczywistym z AllMySat

Download on the App Store